• In Czech Republic
  • List of Countries
  • For 7 days
  • Water Temperature
  • Satellite Maps
  • Weather Map
  • Weather Widgets
  • user-avatar
    Login

    Hourly Weather Kaprun

    Today, 17 August, Friday

    Time Temperature Precipitation Wind Pressure Humidity
    00:00 +8°C° 0 mm 1 mps 599 mmHg 92%
    01:00 +7°C° 0 mm 2 mps 599 mmHg 91%
    02:00 +8°C° 0 mm 1 mps 599 mmHg 91%
    03:00 +7°C° 0 mm 1 mps 599 mmHg 92%
    04:00 +7°C° 0 mm 1 mps 598 mmHg 92%
    05:00 +8°C° 0 mm 1 mps 599 mmHg 90%
    06:00 +9°C° 0 mm 1 mps 599 mmHg 88%
    07:00 +11°C° 0 mm 1 mps 600 mmHg 83%
    08:00 +13°C° 0 mm 1 mps 601 mmHg 73%
    09:00 +16°C° 0 mm 1 mps 602 mmHg 62%
    10:00 +19°C° 0 mm 1 mps 603 mmHg 52%
    11:00 +19°C° 0.2 mm 1 mps 603 mmHg 52%
    12:00 +19°C° 0.2 mm 1 mps 603 mmHg 52%
    13:00 +18°C° 0.2 mm 2 mps 603 mmHg 51%
    14:00 +18°C° 0.5 mm 2 mps 602 mmHg 57%
    15:00 +18°C° 0.5 mm 1 mps 602 mmHg 62%
    16:00 +16°C° 0.5 mm 1 mps 602 mmHg 68%
    17:00 +15°C° 0.8 mm 1 mps 601 mmHg 75%
    18:00 +13°C° 0.8 mm 1 mps 601 mmHg 82%
    19:00 +11°C° 0.8 mm 0 mps 600 mmHg 88%
    20:00 +11°C° 0.2 mm 1 mps 600 mmHg 90%
    21:00 +10°C° 0.2 mm 1 mps 600 mmHg 92%
    22:00 +9°C° 0.2 mm 1 mps 600 mmHg 93%
    23:00 +9°C° 0 mm 1 mps 600 mmHg 94%

    Tomorrow, 18 August, Saturday

    Time Temperature Precipitation Wind Pressure Humidity
    00:00 +8°C° 0 mm 1 mps 600 mmHg 94%
    01:00 +8°C° 0 mm 1 mps 600 mmHg 94%
    02:00 +8°C° 0 mm 1 mps 600 mmHg 94%
    03:00 +8°C° 0 mm 1 mps 600 mmHg 94%
    04:00 +8°C° 0 mm 1 mps 600 mmHg 94%
    05:00 +9°C° 0 mm 1 mps 601 mmHg 92%
    06:00 +10°C° 0 mm 1 mps 601 mmHg 91%
    07:00 +11°C° 0 mm 1 mps 602 mmHg 89%
    08:00 +13°C° 0 mm 1 mps 603 mmHg 80%
    09:00 +15°C° 0 mm 1 mps 604 mmHg 71%
    10:00 +18°C° 0 mm 1 mps 605 mmHg 62%
    11:00 +18°C° 0.3 mm 1 mps 605 mmHg 61%
    12:00 +18°C° 0.3 mm 1 mps 605 mmHg 60%
    13:00 +19°C° 0.3 mm 1 mps 605 mmHg 59%
    14:00 +18°C° 1 mm 1 mps 604 mmHg 64%
    15:00 +18°C° 1 mm 1 mps 604 mmHg 69%
    16:00 +16°C° 1 mm 1 mps 604 mmHg 73%
    17:00 +15°C° 1.1 mm 1 mps 603 mmHg 80%
    18:00 +13°C° 1.1 mm 1 mps 603 mmHg 86%
    19:00 +11°C° 1.1 mm 0 mps 602 mmHg 92%
    20:00 +10°C° 0.7 mm 0 mps 602 mmHg 93%
    21:00 +10°C° 0.7 mm 0 mps 603 mmHg 94%
    22:00 +9°C° 0.7 mm 0 mps 603 mmHg 95%
    23:00 +9°C° 0.3 mm 0 mps 602 mmHg 95%

    Day after tomorrow, 19 August, Sunday

    Time Temperature Precipitation Wind Pressure Humidity
    00:00 +8°C° 0.3 mm 0 mps 602 mmHg 96%
    01:00 +9°C° 0.3 mm 1 mps 602 mmHg 96%
    02:00 +9°C° 0.2 mm 1 mps 602 mmHg 96%
    03:00 +8°C° 0.2 mm 1 mps 602 mmHg 96%
    04:00 +7°C° 0.2 mm 0 mps 602 mmHg 96%
    05:00 +8°C° 0 mm 0 mps 602 mmHg 94%
    06:00 +9°C° 0 mm 0 mps 603 mmHg 92%
    07:00 +10°C° 0 mm 0 mps 603 mmHg 91%
    08:00 +12°C° 0.1 mm 0 mps 604 mmHg 84%
    09:00 +14°C° 0.1 mm 0 mps 605 mmHg 76%
    10:00 +16°C° 0.1 mm 1 mps 605 mmHg 69%
    11:00 +18°C° 1.2 mm 1 mps 605 mmHg 70%
    12:00 +18°C° 1.2 mm 1 mps 605 mmHg 70%
    13:00 +18°C° 1.2 mm 1 mps 605 mmHg 71%
    14:00 +18°C° 1.7 mm 1 mps 605 mmHg 73%
    15:00 +16°C° 1.7 mm 1 mps 604 mmHg 76%
    16:00 +16°C° 1.7 mm 1 mps 604 mmHg 79%
    17:00 +15°C° 1.1 mm 1 mps 603 mmHg 83%
    18:00 +12°C° 1.1 mm 0 mps 603 mmHg 88%
    19:00 +11°C° 1.1 mm 0 mps 602 mmHg 93%
    20:00 +10°C° 0.7 mm 0 mps 602 mmHg 94%
    21:00 +10°C° 0.7 mm 1 mps 602 mmHg 95%
    22:00 +9°C° 0.7 mm 1 mps 602 mmHg 95%
    23:00 +9°C° 0.1 mm 1 mps 602 mmHg 96%

    20 August, Monday

    Time Temperature Precipitation Wind Pressure Humidity
    00:00 +9°C° 0.1 mm 1 mps 601 mmHg 96%
    01:00 +8°C° 0.1 mm 1 mps 601 mmHg 96%
    02:00 +8°C° 0 mm 1 mps 601 mmHg 96%
    03:00 +8°C° 0 mm 1 mps 601 mmHg 96%
    04:00 +8°C° 0 mm 1 mps 601 mmHg 96%
    05:00 +9°C° 0 mm 1 mps 601 mmHg 95%
    06:00 +10°C° 0 mm 1 mps 602 mmHg 94%
    07:00 +11°C° 0 mm 1 mps 602 mmHg 93%
    08:00 +13°C° 0.1 mm 1 mps 603 mmHg 85%
    09:00 +15°C° 0.1 mm 1 mps 604 mmHg 77%
    10:00 +18°C° 0.1 mm 1 mps 605 mmHg 69%
    11:00 +18°C° 0.5 mm 1 mps 605 mmHg 67%
    12:00 +19°C° 0.5 mm 1 mps 605 mmHg 65%
    13:00 +19°C° 0.5 mm 1 mps 604 mmHg 63%
    14:00 +19°C° 1 mm 1 mps 604 mmHg 67%
    15:00 +18°C° 1 mm 1 mps 604 mmHg 71%
    16:00 +16°C° 1 mm 1 mps 603 mmHg 75%
    17:00 +15°C° 0.9 mm 1 mps 603 mmHg 81%
    18:00 +14°C° 0.9 mm 1 mps 602 mmHg 87%
    19:00 +12°C° 0.9 mm 1 mps 602 mmHg 92%
    20:00 +11°C° 0.2 mm 1 mps 602 mmHg 94%
    21:00 +11°C° 0.2 mm 1 mps 602 mmHg 95%
    22:00 +10°C° 0.2 mm 1 mps 602 mmHg 96%
    23:00 +10°C° 0 mm 1 mps 602 mmHg 96%

    21 August, Tuesday

    Time Temperature Precipitation Wind Pressure Humidity
    00:00 +9°C° 0 mm 1 mps 601 mmHg 97%
    01:00 +9°C° 0 mm 1 mps 601 mmHg 97%
    02:00 +9°C° 0 mm 1 mps 601 mmHg 96%
    03:00 +9°C° 0 mm 1 mps 601 mmHg 96%
    04:00 +8°C° 0 mm 1 mps 601 mmHg 96%
    05:00 +9°C° 0 mm 1 mps 601 mmHg 95%
    06:00 +10°C° 0 mm 1 mps 602 mmHg 93%
    07:00 +10°C° 0 mm 1 mps 602 mmHg 92%
    08:00 +13°C° 0 mm 1 mps 603 mmHg 81%
    09:00 +15°C° 0 mm 1 mps 604 mmHg 70%
    10:00 +18°C° 0 mm 1 mps 605 mmHg 59%
    11:00 +19°C° 0.1 mm 1 mps 605 mmHg 56%
    12:00 +20°C° 0.1 mm 1 mps 605 mmHg 52%
    13:00 +21°C° 0.1 mm 1 mps 605 mmHg 49%
    14:00 +20°C° 0.4 mm 1 mps 605 mmHg 54%
    15:00 +19°C° 0.4 mm 1 mps 605 mmHg 59%
    16:00 +19°C° 0.4 mm 1 mps 604 mmHg 64%
    17:00 +16°C° 0.6 mm 1 mps 604 mmHg 72%
    18:00 +14°C° 0.6 mm 1 mps 603 mmHg 81%
    19:00 +11°C° 0.6 mm 0 mps 602 mmHg 90%
    20:00 +10°C° 0.1 mm 0 mps 602 mmHg 91%
    21:00 +10°C° 0.1 mm 1 mps 602 mmHg 93%
    22:00 +10°C° 0.1 mm 1 mps 602 mmHg 94%
    23:00 +9°C° 0 mm 1 mps 601 mmHg 94%

    22 August, Wednesday

    Time Temperature Precipitation Wind Pressure Humidity
    00:00 +9°C° 0 mm 1 mps 601 mmHg 93%
    01:00 +9°C° 0 mm 1 mps 601 mmHg 93%
    02:00 +9°C° 0 mm 1 mps 601 mmHg 93%
    03:00 +8°C° 0 mm 1 mps 601 mmHg 92%
    04:00 +8°C° 0 mm 1 mps 601 mmHg 92%
    05:00 +9°C° 0 mm 1 mps 601 mmHg 90%
    06:00 +10°C° 0 mm 1 mps 602 mmHg 87%
    07:00 +12°C° 0 mm 1 mps 602 mmHg 85%
    08:00 +14°C° 0.1 mm 1 mps 603 mmHg 77%
    09:00 +16°C° 0.1 mm 1 mps 604 mmHg 70%
    10:00 +19°C° 0.1 mm 1 mps 605 mmHg 62%
    11:00 +19°C° 1.2 mm 1 mps 605 mmHg 64%
    12:00 +19°C° 1.2 mm 1 mps 604 mmHg 66%
    13:00 +19°C° 1.2 mm 1 mps 604 mmHg 69%
    14:00 +18°C° 2.2 mm 1 mps 604 mmHg 73%
    15:00 +18°C° 2.2 mm 1 mps 603 mmHg 77%
    16:00 +16°C° 2.2 mm 1 mps 603 mmHg 81%
    17:00 +15°C° 1.4 mm 1 mps 603 mmHg 85%
    18:00 +14°C° 1.4 mm 1 mps 602 mmHg 89%
    19:00 +11°C° 1.4 mm 0 mps 602 mmHg 93%
    20:00 +12°C° 0.7 mm 1 mps 602 mmHg 93%
    21:00 +11°C° 0.7 mm 1 mps 602 mmHg 93%
    22:00 +11°C° 0.7 mm 1 mps 602 mmHg 94%
    23:00 +10°C° 0.3 mm 1 mps 601 mmHg 94%
    Show more